Location: Killam
(52.7910°N, 111.8608°W)
Time: 02:00:46
(UTC+00:00)

Oscar 11 - Pass Details

Date: 17 March 2026
Orbit: 590 x 602 km, 97.8° (Epoch: 13 April)

Event Time Altitude Azimuth Distance (km) Brightness Sun altitude
Rises 09:56:15 0° 27° (NNE) 2,840 11.5 -30.8°
Reaches altitude 10° 09:59:05 10° 47° (NE) 1,931 10.5 -30.5°
Maximum altitude 10:01:52 17° 89° (E) 1,510 9.5 -30.2°
Enters shadow 10:02:43 16° 104° (ESE) 1,550 9.4 -30.1°
